Regional Weather Roundup
Issued by NWS Charleston, SC

Current Version | Previous Version | Graphics & Text | Print | Product List | Glossary On
Versions: 1 2 3 4 5 6 7 8 9 10 11 12 13 14 15 16 17 18 19 20 21 22 23 24 25 26 27 28 29 30 31 32 33 34 35 36 37 38 39 40 41 42 43 44 45 46 47 48 49 50
000
ASUS42 KCHS 260612
RWRCHS

REGIONAL WEATHER ROUNDUP
NATIONAL WEATHER SERVICE CHARLESTON SC
200 AM EDT WED JUL 26 2017

NOTE: "FAIR" INDICATES FEW OR NO CLOUDS BELOW 12,000 FEET WITH NO
SIGNIFICANT WEATHER AND/OR OBSTRUCTIONS TO VISIBILITY.

NOT ALL STATIONS ARE QUALITY CONTROLLED. USE DATA WITH CAUTION...
ESPECIALLY DEWPOINT OBSERVATIONS.

SCZ027-030-031-034>040-042>050-260700-
...SOUTHEAST SOUTH CAROLINA...

CITY           SKY/WX    TMP DP  RH WIND       PRES   REMARKS
N CHARLESTON   MOCLDY    75  71  87 CALM      30.06F
6HR MIN TEMP:  75; 6HR MAX TEMP:  80;

WATERFRONT PRK   N/A     78  74  87 CALM      30.05F
JOHNS ISLAND   FAIR      75  75 100 CALM      30.07F
PINOPOLIS        N/A     79  75  89 VRB3      30.00F
MONCKS CORNER  FAIR      73  72  94 CALM      30.06F
SUMMERVILLE    FAIR      73  72  94 CALM      30.07F
BEAUFORT MCAS  MOCLDY    76  75  97 N6        30.06F
6HR MIN TEMP:  76; 6HR MAX TEMP:  77; 6HR PCP:  0.01;

BEAUFORT ARPT  FAIR      77  73  88 N6        30.05F
HILTON HEAD IS CLOUDY    79  77  94 CALM      30.07R
WALTERBORO     NOT AVBL
ALLENDALE      NOT AVBL

...SOUTHERN MIDLANDS AND PEE DEE...

CITY           SKY/WX    TMP DP  RH WIND       PRES   REMARKS
GEORGETOWN     FAIR      77  77 100 CALM      30.07F
KINGSTREE      FAIR      73  73 100 CALM      30.07F
ORANGEBURG     CLOUDY    76  71  85 CALM      30.07F
6HR MIN TEMP:  75; 6HR MAX TEMP:  83;

BARNWELL       FAIR      75  73  94 CALM      30.07F
AIKEN          FAIR      72  72 100 CALM      30.11F
MANNING        FAIR      75  73  94 W3        30.08S
COLUMBIA       PTCLDY    77  71  82 CALM      30.07F
6HR MIN TEMP:  76; 6HR MAX TEMP:  84; 6HR PCP:  0.07;

SUMTER         CLOUDY    75  73  92 CALM      30.05F
6HR MIN TEMP:  75; 6HR MAX TEMP:  78;

FLORENCE       MOCLDY    78  74  87 W5        30.08F
6HR MIN TEMP:  77; 6HR MAX TEMP:  87;

MYRTLE BEACH   CLOUDY    78  72  81 N5        30.08S
N MYRTLE BEACH PTCLDY    77  74  90 NE3       30.06F
6HR MIN TEMP:  77; 6HR MAX TEMP:  83; 6HR PCP: TRACE;


$$

GAZ063-065-086>088-099>101-113>116-118-119-134>141-150-260700-
...SOUTHEAST GEORGIA...

CITY           SKY/WX    TMP DP  RH WIND       PRES   REMARKS
SAVANNAH ARPT  MOCLDY   N/A N/A N/A N6        30.09R
                                      6HR PCP: TRACE;

HUNTER AAF     CLOUDY    75  73  93 N3        30.05R
6HR MIN TEMP:  75; 6HR MAX TEMP:  76;

FORT STEWART   CLOUDY    76  74  95 CALM      30.04S
6HR MIN TEMP:  75; 6HR MAX TEMP:  77; 6HR PCP:  0.06;

STATESBORO     PTCLDY    73  73 100 CALM      30.08S
SYLVANIA       MOCLDY    73  73 100 CALM      30.09S
CLAXTON        FAIR      75  74  98 CALM      30.08R

...CSRA...CENTRAL AND FAR SOUTHEAST GEORGIA...

CITY           SKY/WX    TMP DP  RH WIND       PRES   REMARKS
THOMSON        PTCLDY    72  70  95 CALM      30.13F
AUGUSTA-BUSH   CLEAR     74  72  93 CALM      30.06F FOG
6HR MIN TEMP:  74; 6HR MAX TEMP:  77; 6HR PCP:  0.03;

AUGUSTA-DANIEL CLEAR     76  70  82 CALM      30.08F
SWAINSBORO     FOG       72  72 100 SE3       30.10R VSB 1
VIDALIA        CLOUDY    73  73 100 CALM      30.08S
EASTMAN        FAIR      75  75 100 CALM      30.10S
HAZLEHURST     MOCLDY    76  76 100 NW3       30.06S
ALMA           MOCLDY    74  71  91 S3        30.06S
6HR MIN TEMP:  73; 6HR MAX TEMP:  77; 6HR PCP: TRACE;

WAYCROSS       CLOUDY    77  77 100 N3        30.06S
JESUP          NOT AVBL
BAXLEY         FAIR      75  75 100 CALM      30.06S
BRUNSWICK      DRIZZLE   77  77 100 E3        30.06F
SAINT SIMONS   CLOUDY    79  77  94 CALM      30.05F
6HR MIN TEMP:  76; 6HR MAX TEMP:  85; 6HR PCP:  0.94;


$$

SCZ027-028-034-036>038-045-046-048>050-GAZ119-141-260700-
...LAKE AND SUPPLEMENTAL COASTAL OBSERVATIONS...

STATION/POSITION TIME  TEMP    WIND        PRES    WAVE   SWELL
                       AIR SEA DIR/SP/G            HT/PER HT/PER/DIR
                 (UTC) (F)     (DEG/KT/KT) (MB)    (FT/S) (FT/S/D)
WINYAH BAY       NOT AVBL
LAKE MURRAY      0520   80     240/  3/  5 1017.6
ACE BASIN NERRS  0445   75        CALM     1019.0
FORT PULASKI     0542          340/  5/  5 1018.6R
SAPELO ISLAND    0500   76        CALM     1018.0

$$

ANZ835-935-AMZ111-154-330-350-352-354-370-450-454-472-260700-
...C-MAN AND BUOY OBSERVATIONS...

STATION/POSITION TIME  TEMP    WIND        PRES    WAVE   SWELL
                       AIR SEA DIR/SP/G            HT/PER HT/PER/DIR
                 (UTC) (F)     (DEG/KT/KT) (MB)    (FT/S) (FT/S/D)
BUOY 41004       0550   81 83  300/ 10/ 12 1017.5F   2/ 8   2/120/ 8
BUOY 41008       0550   78 80  240/  2/  4 1017.6F   2/ 9   2/110/ 9
FOLLY BEACH CMAN 0500   78     250/  2/  3 1019.2F
CAPERS NEARSHORE 0508   78 84  330/  8/ 12 1018.4F
FRIPP NEARSHORE  0508   80 85  360/ 10/ 12 1017.7F


STATION/POSITION TIME  TEMP    WIND        PRES    WAVE   SWELL
                       AIR SEA DIR/SP/G            HT/PER HT/PER/DIR
                 (UTC) (F)     (DEG/KT/KT) (MB)    (FT/S) (FT/S/D)
5E ST. MARYS GA  0530      79                N/A     2/10
FRYING PAN BUOY  0550   81 82  280/  4/  6 1018.1S   3/ 6   2/170/ 6
BUOY 41025       0550   80 84   40/ 16/ 17 1019.4F   3/ 7   2/180/ 7
CAPE LOOKOUT NC  0500   79      50/ 19/ 21 1019.4R
BUOY 41002       0550   83 83  220/  8/ 10 1019.4F   3/ 6   3/200/ 6
BUOY 41010       0550   84 84  170/  8/ 10 1019.3F   2/10   2/100/10
ST AUGUSTINE FL  0600   79 74  200/  5/  6 1018.6F


$$




USA.gov is the U.S. government's official web portal to all federal, state and local government web resources and services.